Year,Month,Day,Hour,Minute,Value (Times are PST for temperature in C)
2007,07,11,00,00,20.20
2007,07,11,00,01,20.20
2007,07,11,00,02,20.10
2007,07,11,00,03,20.00
2007,07,11,00,04,20.00
2007,07,11,00,05,19.90
2007,07,11,00,06,19.90
2007,07,11,00,07,19.80
2007,07,11,00,08,19.70
2007,07,11,00,09,19.60
2007,07,11,00,10,19.60
2007,07,11,00,11,19.50
2007,07,11,00,12,19.40
2007,07,11,00,13,19.40
2007,07,11,00,14,19.40
2007,07,11,00,15,19.30
2007,07,11,00,16,19.30
2007,07,11,00,17,19.30
2007,07,11,00,18,19.30
2007,07,11,00,19,19.30
2007,07,11,00,20,19.30
2007,07,11,00,21,19.30
2007,07,11,00,22,19.30
2007,07,11,00,23,19.20
2007,07,11,00,24,19.20
2007,07,11,00,25,19.20
2007,07,11,00,26,19.20
2007,07,11,00,27,19.20
2007,07,11,00,28,19.20
2007,07,11,00,29,19.20
2007,07,11,00,30,19.20
2007,07,11,00,31,19.20
2007,07,11,00,32,19.20
2007,07,11,00,33,19.20
2007,07,11,00,34,19.30
2007,07,11,00,35,19.30
2007,07,11,00,36,19.30
2007,07,11,00,37,19.30
2007,07,11,00,38,19.30
2007,07,11,00,39,19.20
2007,07,11,00,40,19.20
2007,07,11,00,41,19.10
2007,07,11,00,42,19.10
2007,07,11,00,43,19.00
2007,07,11,00,44,18.90
2007,07,11,00,45,18.90
2007,07,11,00,46,18.90
2007,07,11,00,47,18.90
2007,07,11,00,48,18.90
2007,07,11,00,49,18.90
2007,07,11,00,50,18.90
2007,07,11,00,51,18.90
2007,07,11,00,52,19.00
2007,07,11,00,53,19.10
2007,07,11,00,54,19.20
2007,07,11,00,55,19.20
2007,07,11,00,56,19.20
2007,07,11,00,57,19.20
2007,07,11,00,58,19.20
2007,07,11,00,59,19.10
2007,07,11,01,00,19.20
2007,07,11,01,01,19.10
2007,07,11,01,02,19.10
2007,07,11,01,03,19.00
2007,07,11,01,04,18.90
2007,07,11,01,05,18.90
2007,07,11,01,06,18.80
2007,07,11,01,07,18.80
2007,07,11,01,08,18.80
2007,07,11,01,09,18.90
2007,07,11,01,10,18.90
2007,07,11,01,11,18.90
2007,07,11,01,12,19.00
2007,07,11,01,13,19.00
2007,07,11,01,14,19.10
2007,07,11,01,15,19.10
2007,07,11,01,16,19.10
2007,07,11,01,17,19.10
2007,07,11,01,18,19.10
2007,07,11,01,19,19.20
2007,07,11,01,20,19.20
2007,07,11,01,21,19.20
2007,07,11,01,22,19.10
2007,07,11,01,23,19.10
2007,07,11,01,24,19.00
2007,07,11,01,25,19.00
2007,07,11,01,26,18.90
2007,07,11,01,27,18.90
2007,07,11,01,28,18.80
2007,07,11,01,29,18.80
2007,07,11,01,30,18.90
2007,07,11,01,31,18.90
2007,07,11,01,32,18.80
2007,07,11,01,33,18.80
2007,07,11,01,34,18.80
2007,07,11,01,35,18.90
2007,07,11,01,36,18.90
2007,07,11,01,37,18.90
2007,07,11,01,38,19.00
2007,07,11,01,39,19.00
2007,07,11,01,40,19.10
2007,07,11,01,41,19.20
2007,07,11,01,42,19.20
2007,07,11,01,43,19.10
2007,07,11,01,44,19.10
2007,07,11,01,45,19.10
2007,07,11,01,46,19.00
2007,07,11,01,47,19.00
2007,07,11,01,48,18.90
2007,07,11,01,49,18.90
2007,07,11,01,50,18.90
2007,07,11,01,51,18.90
2007,07,11,01,52,18.90
2007,07,11,01,53,18.80
2007,07,11,01,54,18.70
2007,07,11,01,55,18.70
2007,07,11,01,56,18.70
2007,07,11,01,57,18.60
2007,07,11,01,58,18.60
2007,07,11,01,59,18.60
2007,07,11,02,00,18.60
2007,07,11,02,01,18.60
2007,07,11,02,02,18.60
2007,07,11,02,03,18.60
2007,07,11,02,04,18.60
2007,07,11,02,05,18.50
2007,07,11,02,06,18.40
2007,07,11,02,07,18.40
2007,07,11,02,08,18.30
2007,07,11,02,09,18.30
2007,07,11,02,10,18.20
2007,07,11,02,11,18.20
2007,07,11,02,12,18.20
2007,07,11,02,13,18.20
2007,07,11,02,14,18.10
2007,07,11,02,15,18.10
2007,07,11,02,16,18.10
2007,07,11,02,17,18.00
2007,07,11,02,18,17.90
2007,07,11,02,19,17.90
2007,07,11,02,20,17.80
2007,07,11,02,21,17.80
2007,07,11,02,22,17.80
2007,07,11,02,23,17.80
2007,07,11,02,24,17.80
2007,07,11,02,25,17.80
2007,07,11,02,26,17.80
2007,07,11,02,27,17.80
2007,07,11,02,28,17.80
2007,07,11,02,29,17.80
2007,07,11,02,30,17.70
2007,07,11,02,31,17.70
2007,07,11,02,32,17.70
2007,07,11,02,33,17.70
2007,07,11,02,34,17.70
2007,07,11,02,35,17.60
2007,07,11,02,36,17.60
2007,07,11,02,37,17.50
2007,07,11,02,38,17.40
2007,07,11,02,39,17.40
2007,07,11,02,40,17.30
2007,07,11,02,41,17.30
2007,07,11,02,42,17.30
2007,07,11,02,43,17.20
2007,07,11,02,44,17.20
2007,07,11,02,45,17.10
2007,07,11,02,46,17.10
2007,07,11,02,47,17.10
2007,07,11,02,48,17.10
2007,07,11,02,49,17.10
2007,07,11,02,50,17.00
2007,07,11,02,51,17.00
2007,07,11,02,52,16.90
2007,07,11,02,53,16.90
2007,07,11,02,54,16.90
2007,07,11,02,55,16.80
2007,07,11,02,56,16.80
2007,07,11,02,57,16.80
2007,07,11,02,58,16.80
2007,07,11,02,59,16.80
2007,07,11,03,00,16.80
2007,07,11,03,01,16.80
2007,07,11,03,02,16.80
2007,07,11,03,03,16.80
2007,07,11,03,04,16.80
2007,07,11,03,05,16.80
2007,07,11,03,06,16.80
2007,07,11,03,07,16.80
2007,07,11,03,08,16.80
2007,07,11,03,09,16.80
2007,07,11,03,10,16.80
2007,07,11,03,11,16.80
2007,07,11,03,12,16.80
2007,07,11,03,13,16.80
2007,07,11,03,14,16.70
2007,07,11,03,15,16.70
2007,07,11,03,16,16.70
2007,07,11,03,17,16.70
2007,07,11,03,18,16.70
2007,07,11,03,19,16.60
2007,07,11,03,20,16.60
2007,07,11,03,21,16.60
2007,07,11,03,22,16.60
2007,07,11,03,23,16.60
2007,07,11,03,24,16.60
2007,07,11,03,25,16.60
2007,07,11,03,26,16.60
2007,07,11,03,27,16.60
2007,07,11,03,28,16.60
2007,07,11,03,29,16.60
2007,07,11,03,30,16.60
2007,07,11,03,31,16.60
2007,07,11,03,32,16.60
2007,07,11,03,33,16.60
2007,07,11,03,34,16.60
2007,07,11,03,35,16.60
2007,07,11,03,36,16.60
2007,07,11,03,37,16.60
2007,07,11,03,38,16.60
2007,07,11,03,39,16.60
2007,07,11,03,40,16.50
2007,07,11,03,41,16.60
2007,07,11,03,42,16.60
2007,07,11,03,43,16.60
2007,07,11,03,44,16.70
2007,07,11,03,45,16.70
2007,07,11,03,46,16.80
2007,07,11,03,47,16.80
2007,07,11,03,48,16.80
2007,07,11,03,49,16.80
2007,07,11,03,50,16.80
2007,07,11,03,51,16.80
2007,07,11,03,52,16.70
2007,07,11,03,53,16.70
2007,07,11,03,54,16.70
2007,07,11,03,55,16.60
2007,07,11,03,56,16.60
2007,07,11,03,57,16.60
2007,07,11,03,58,16.60
2007,07,11,03,59,16.50
2007,07,11,04,00,16.50
2007,07,11,04,01,16.50
2007,07,11,04,02,16.50
2007,07,11,04,03,16.50
2007,07,11,04,04,16.50
2007,07,11,04,05,16.50
2007,07,11,04,06,16.50
2007,07,11,04,07,16.50
2007,07,11,04,08,16.40
2007,07,11,04,09,16.40
2007,07,11,04,10,16.40
2007,07,11,04,11,16.40
2007,07,11,04,12,16.40
2007,07,11,04,13,16.40
2007,07,11,04,14,16.40
2007,07,11,04,15,16.40
2007,07,11,04,16,16.30
2007,07,11,04,17,16.30
2007,07,11,04,18,16.30
2007,07,11,04,19,16.40
2007,07,11,04,20,16.40
2007,07,11,04,21,16.30
2007,07,11,04,22,16.30
2007,07,11,04,23,16.30
2007,07,11,04,24,16.30
2007,07,11,04,25,16.20
2007,07,11,04,26,16.20
2007,07,11,04,27,16.20
2007,07,11,04,28,16.20
2007,07,11,04,29,16.20
2007,07,11,04,30,16.20
2007,07,11,04,31,16.20
2007,07,11,04,32,16.20
2007,07,11,04,33,16.20
2007,07,11,04,34,16.20
2007,07,11,04,35,16.20
2007,07,11,04,36,16.20
2007,07,11,04,37,16.20
2007,07,11,04,38,16.20
2007,07,11,04,39,16.20
2007,07,11,04,40,16.30
2007,07,11,04,41,16.30
2007,07,11,04,42,16.30
2007,07,11,04,43,16.30
2007,07,11,04,44,16.30
2007,07,11,04,45,16.30
2007,07,11,04,46,16.30
2007,07,11,04,47,16.20
2007,07,11,04,48,16.20
2007,07,11,04,49,16.20
2007,07,11,04,50,16.20
2007,07,11,04,51,16.20
2007,07,11,04,52,16.20
2007,07,11,04,53,16.10
2007,07,11,04,54,16.10
2007,07,11,04,55,16.10
2007,07,11,04,56,16.10
2007,07,11,04,57,16.10
2007,07,11,04,58,16.10
2007,07,11,04,59,16.10
2007,07,11,05,00,16.10
2007,07,11,05,01,16.10
2007,07,11,05,02,16.10
2007,07,11,05,03,16.10
2007,07,11,05,04,16.10
2007,07,11,05,05,16.10
2007,07,11,05,06,16.10
2007,07,11,05,07,16.10
2007,07,11,05,08,16.10
2007,07,11,05,09,16.10
2007,07,11,05,10,16.20
2007,07,11,05,11,16.20
2007,07,11,05,12,16.30
2007,07,11,05,13,16.30
2007,07,11,05,14,16.30
2007,07,11,05,15,16.30
2007,07,11,05,16,16.30
2007,07,11,05,17,16.30
2007,07,11,05,18,16.30
2007,07,11,05,19,16.30
2007,07,11,05,20,16.30
2007,07,11,05,21,16.20
2007,07,11,05,22,16.20
2007,07,11,05,23,16.20
2007,07,11,05,24,16.10
2007,07,11,05,25,16.10
2007,07,11,05,26,16.10
2007,07,11,05,27,16.10
2007,07,11,05,28,16.10
2007,07,11,05,29,16.10
2007,07,11,05,30,16.20
2007,07,11,05,31,16.20
2007,07,11,05,32,16.20
2007,07,11,05,33,16.20
2007,07,11,05,34,16.20
2007,07,11,05,35,16.20
2007,07,11,05,36,16.20
2007,07,11,05,37,16.20
2007,07,11,05,38,16.20
2007,07,11,05,39,16.20
2007,07,11,05,40,16.30
2007,07,11,05,41,16.30
2007,07,11,05,42,16.30
2007,07,11,05,43,16.30
2007,07,11,05,44,16.30
2007,07,11,05,45,16.20
2007,07,11,05,46,16.20
2007,07,11,05,47,16.20
2007,07,11,05,48,16.20
2007,07,11,05,49,16.20
2007,07,11,05,50,16.20
2007,07,11,05,51,16.20
2007,07,11,05,52,16.20
2007,07,11,05,53,16.20
2007,07,11,05,54,16.20
2007,07,11,05,55,16.20
2007,07,11,05,56,16.30
2007,07,11,05,57,16.30
2007,07,11,05,58,16.40
2007,07,11,05,59,16.40
2007,07,11,06,00,16.50
2007,07,11,06,01,16.60
2007,07,11,06,02,16.60
2007,07,11,06,03,16.60
2007,07,11,06,04,16.60
2007,07,11,06,05,16.70
2007,07,11,06,06,16.70
2007,07,11,06,07,16.70
2007,07,11,06,08,16.70
2007,07,11,06,09,16.70
2007,07,11,06,10,16.70
2007,07,11,06,11,16.60
2007,07,11,06,12,16.60
2007,07,11,06,13,16.60
2007,07,11,06,14,16.60
2007,07,11,06,15,16.60
2007,07,11,06,16,16.60
2007,07,11,06,17,16.60
2007,07,11,06,18,16.60
2007,07,11,06,19,16.60
2007,07,11,06,20,16.60
2007,07,11,06,21,16.60
2007,07,11,06,22,16.50
2007,07,11,06,23,16.50
2007,07,11,06,24,16.50
2007,07,11,06,25,16.50
2007,07,11,06,26,16.50
2007,07,11,06,27,16.50
2007,07,11,06,28,16.50
2007,07,11,06,29,16.50
2007,07,11,06,30,16.50
2007,07,11,06,31,16.50
2007,07,11,06,32,16.50
2007,07,11,06,33,16.50
2007,07,11,06,34,16.50
2007,07,11,06,35,16.60
2007,07,11,06,36,16.60
2007,07,11,06,37,16.70
2007,07,11,06,38,16.70
2007,07,11,06,39,16.70
2007,07,11,06,40,16.80
2007,07,11,06,41,16.80
2007,07,11,06,42,16.80
2007,07,11,06,43,16.90
2007,07,11,06,44,16.90
2007,07,11,06,45,16.90
2007,07,11,06,46,16.90
2007,07,11,06,47,17.00
2007,07,11,06,48,17.00
2007,07,11,06,49,17.10
2007,07,11,06,50,17.20
2007,07,11,06,51,17.30
2007,07,11,06,52,17.40
2007,07,11,06,53,17.50
2007,07,11,06,54,17.60
2007,07,11,06,55,17.70
2007,07,11,06,56,17.70
2007,07,11,06,57,17.80
2007,07,11,06,58,17.80
2007,07,11,06,59,17.80
2007,07,11,07,00,17.80
2007,07,11,07,01,17.80
2007,07,11,07,02,17.80
2007,07,11,07,03,17.80
2007,07,11,07,04,17.80
2007,07,11,07,05,17.90
2007,07,11,07,06,18.00
2007,07,11,07,07,18.00
2007,07,11,07,08,18.00
2007,07,11,07,09,18.10
2007,07,11,07,10,18.20
2007,07,11,07,11,18.30
2007,07,11,07,12,18.40
2007,07,11,07,13,18.40
2007,07,11,07,14,18.50
2007,07,11,07,15,18.50
2007,07,11,07,16,18.60
2007,07,11,07,17,18.70
2007,07,11,07,18,18.70
2007,07,11,07,19,18.80
2007,07,11,07,20,18.80
2007,07,11,07,21,18.90
2007,07,11,07,22,18.90
2007,07,11,07,23,18.90
2007,07,11,07,24,19.00
2007,07,11,07,25,19.00
2007,07,11,07,26,19.00
2007,07,11,07,27,19.10
2007,07,11,07,28,19.10
2007,07,11,07,29,19.20
2007,07,11,07,30,19.20
2007,07,11,07,31,19.30
2007,07,11,07,32,19.30
2007,07,11,07,33,19.30
2007,07,11,07,34,19.40
2007,07,11,07,35,19.50
2007,07,11,07,36,19.60
2007,07,11,07,37,19.60
2007,07,11,07,38,19.70
2007,07,11,07,39,19.80
2007,07,11,07,40,19.80
2007,07,11,07,41,19.90
2007,07,11,07,42,20.00
2007,07,11,07,43,20.00
2007,07,11,07,44,20.10
2007,07,11,07,45,20.10
2007,07,11,07,46,20.20
2007,07,11,07,47,20.30
2007,07,11,07,48,20.40
2007,07,11,07,49,20.50
2007,07,11,07,50,20.60
2007,07,11,07,51,20.60
2007,07,11,07,52,20.70
2007,07,11,07,53,20.80
2007,07,11,07,54,20.80
2007,07,11,07,55,20.80
2007,07,11,07,56,20.90
2007,07,11,07,57,20.90
2007,07,11,07,58,20.90
2007,07,11,07,59,20.90
2007,07,11,08,00,21.00
2007,07,11,08,01,21.10
2007,07,11,08,02,21.20
2007,07,11,08,03,21.20
2007,07,11,08,04,21.30
2007,07,11,08,05,21.30
2007,07,11,08,06,21.40
2007,07,11,08,07,21.50
2007,07,11,08,08,21.60
2007,07,11,08,09,21.60
2007,07,11,08,10,21.60
2007,07,11,08,11,21.70
2007,07,11,08,12,21.80
2007,07,11,08,13,21.90
2007,07,11,08,14,21.90
2007,07,11,08,15,22.00
2007,07,11,08,16,22.00
2007,07,11,08,17,22.10
2007,07,11,08,18,22.20
2007,07,11,08,19,22.40
2007,07,11,08,20,22.50
2007,07,11,08,21,22.40
2007,07,11,08,22,22.40
2007,07,11,08,23,22.40
2007,07,11,08,24,22.50
2007,07,11,08,25,22.50
2007,07,11,08,26,22.60
2007,07,11,08,27,22.70
2007,07,11,08,28,22.70
2007,07,11,08,29,22.70
2007,07,11,08,30,22.80
2007,07,11,08,31,22.80
2007,07,11,08,32,22.70
2007,07,11,08,33,22.80
2007,07,11,08,34,22.80
2007,07,11,08,35,23.00
2007,07,11,08,36,23.10
2007,07,11,08,37,23.10
2007,07,11,08,38,23.30
2007,07,11,08,39,23.40
2007,07,11,08,40,23.60
2007,07,11,08,41,23.70
2007,07,11,08,42,23.90
2007,07,11,08,43,24.00
2007,07,11,08,44,24.20
2007,07,11,08,45,24.20
2007,07,11,08,46,24.30
2007,07,11,08,47,24.40
2007,07,11,08,48,24.50
2007,07,11,08,49,24.60
2007,07,11,08,50,24.70
2007,07,11,08,51,24.80
2007,07,11,08,52,24.90
2007,07,11,08,53,25.00
2007,07,11,08,54,25.10
2007,07,11,08,55,25.20
2007,07,11,08,56,25.30
2007,07,11,08,57,25.30
2007,07,11,08,58,25.40
2007,07,11,08,59,25.50
2007,07,11,09,00,25.60
2007,07,11,09,01,25.70
2007,07,11,09,02,25.70
2007,07,11,09,03,25.70
2007,07,11,09,04,25.70
2007,07,11,09,05,25.60
2007,07,11,09,06,25.60
2007,07,11,09,07,25.60
2007,07,11,09,08,25.70
2007,07,11,09,09,25.80
2007,07,11,09,10,25.90
2007,07,11,09,11,25.90
2007,07,11,09,12,26.10
2007,07,11,09,13,26.20
2007,07,11,09,14,26.30
2007,07,11,09,15,26.50
2007,07,11,09,16,26.60
2007,07,11,09,17,26.70
2007,07,11,09,18,26.80
2007,07,11,09,19,27.00
2007,07,11,09,20,27.10
2007,07,11,09,21,27.20
2007,07,11,09,22,27.40
2007,07,11,09,23,27.50
2007,07,11,09,24,27.60
2007,07,11,09,25,27.70
2007,07,11,09,26,27.80
2007,07,11,09,27,27.90
2007,07,11,09,28,28.00
2007,07,11,09,29,28.10
2007,07,11,09,30,28.30
2007,07,11,09,31,28.40
2007,07,11,09,32,28.50
2007,07,11,09,33,28.60
2007,07,11,09,34,28.60
2007,07,11,09,35,28.50
2007,07,11,09,36,28.40
2007,07,11,09,37,28.30
2007,07,11,09,38,28.20
2007,07,11,09,39,28.00
2007,07,11,09,40,27.80
2007,07,11,09,41,27.70
2007,07,11,09,42,27.70
2007,07,11,09,43,27.70
2007,07,11,09,44,27.60
2007,07,11,09,45,27.60
2007,07,11,09,46,27.50
2007,07,11,09,47,27.30
2007,07,11,09,48,27.30
2007,07,11,09,49,27.20
2007,07,11,09,50,27.20
2007,07,11,09,51,27.20
2007,07,11,09,52,27.30
2007,07,11,09,53,27.30
2007,07,11,09,54,27.30
2007,07,11,09,55,27.30
2007,07,11,09,56,27.40
2007,07,11,09,57,27.60
2007,07,11,09,58,27.70
2007,07,11,09,59,27.80
2007,07,11,10,00,28.00
2007,07,11,10,01,28.20
2007,07,11,10,02,28.30
2007,07,11,10,03,28.40
2007,07,11,10,04,28.50
2007,07,11,10,05,28.60
2007,07,11,10,06,28.80
2007,07,11,10,07,28.90
2007,07,11,10,08,29.00
2007,07,11,10,09,29.20
2007,07,11,10,10,29.30
2007,07,11,10,11,29.40
2007,07,11,10,12,29.60
2007,07,11,10,13,29.80
2007,07,11,10,14,30.00
2007,07,11,10,15,30.10
2007,07,11,10,16,30.30
2007,07,11,10,17,30.40
2007,07,11,10,18,30.50
2007,07,11,10,19,30.60
2007,07,11,10,20,30.60
2007,07,11,10,21,30.60
2007,07,11,10,22,30.50
2007,07,11,10,23,30.40
2007,07,11,10,24,30.40
2007,07,11,10,25,30.40
2007,07,11,10,26,30.50
2007,07,11,10,27,30.60
2007,07,11,10,28,30.60
2007,07,11,10,29,30.60
2007,07,11,10,30,30.70
2007,07,11,10,31,30.70
2007,07,11,10,32,30.60
2007,07,11,10,33,30.60
2007,07,11,10,34,30.50
2007,07,11,10,35,30.50
2007,07,11,10,36,30.60
2007,07,11,10,37,30.60
2007,07,11,10,38,30.70
2007,07,11,10,39,30.80
2007,07,11,10,40,30.90
2007,07,11,10,41,31.00
2007,07,11,10,42,31.10
2007,07,11,10,43,31.20
2007,07,11,10,44,31.30
2007,07,11,10,45,31.40
2007,07,11,10,46,31.60
2007,07,11,10,47,31.70
2007,07,11,10,48,31.80
2007,07,11,10,49,31.70
2007,07,11,10,50,31.50
2007,07,11,10,51,31.40
2007,07,11,10,52,31.40
2007,07,11,10,53,31.40
2007,07,11,10,54,31.50
2007,07,11,10,55,31.60
2007,07,11,10,56,31.50
2007,07,11,10,57,31.50
2007,07,11,10,58,31.50
2007,07,11,10,59,31.40
2007,07,11,11,00,31.40
2007,07,11,11,01,31.40
2007,07,11,11,02,31.40
2007,07,11,11,03,31.50
2007,07,11,11,04,31.60
2007,07,11,11,05,31.80
2007,07,11,11,06,31.80
2007,07,11,11,07,31.90
2007,07,11,11,08,32.00
2007,07,11,11,09,32.00
2007,07,11,11,10,31.90
2007,07,11,11,11,31.70
2007,07,11,11,12,31.60
2007,07,11,11,13,31.50
2007,07,11,11,14,31.30
2007,07,11,11,15,31.20
2007,07,11,11,16,31.10
2007,07,11,11,17,31.00
2007,07,11,11,18,31.00
2007,07,11,11,19,31.00
2007,07,11,11,20,30.90
2007,07,11,11,21,31.00
2007,07,11,11,22,31.00
2007,07,11,11,23,31.10
2007,07,11,11,24,31.20
2007,07,11,11,25,31.20
2007,07,11,11,26,31.30
2007,07,11,11,27,31.40
2007,07,11,11,28,31.40
2007,07,11,11,29,31.50
2007,07,11,11,30,31.50
2007,07,11,11,31,31.60
2007,07,11,11,32,31.60
2007,07,11,11,33,31.70
2007,07,11,11,34,31.70
2007,07,11,11,35,31.70
2007,07,11,11,36,31.70
2007,07,11,11,37,31.80
2007,07,11,11,38,32.00
2007,07,11,11,39,32.10
2007,07,11,11,40,32.20
2007,07,11,11,41,32.30
2007,07,11,11,42,32.40
2007,07,11,11,43,32.40
2007,07,11,11,44,32.40
2007,07,11,11,45,32.40
2007,07,11,11,46,32.40
2007,07,11,11,47,32.30
2007,07,11,11,48,32.30
2007,07,11,11,49,32.30
2007,07,11,11,50,32.30
2007,07,11,11,51,32.30
2007,07,11,11,52,32.40
2007,07,11,11,53,32.50
2007,07,11,11,54,32.40
2007,07,11,11,55,32.30
2007,07,11,11,56,32.20
2007,07,11,11,57,32.20
2007,07,11,11,58,32.20
2007,07,11,11,59,32.20
2007,07,11,12,00,32.30
2007,07,11,12,01,32.40
2007,07,11,12,02,32.40
2007,07,11,12,03,32.40
2007,07,11,12,04,32.20
2007,07,11,12,05,32.10
2007,07,11,12,06,32.00
2007,07,11,12,07,31.90
2007,07,11,12,08,31.90
2007,07,11,12,09,31.80
2007,07,11,12,10,31.80
2007,07,11,12,11,31.70
2007,07,11,12,12,31.50
2007,07,11,12,13,31.40
2007,07,11,12,14,31.30
2007,07,11,12,15,31.30
2007,07,11,12,16,31.20
2007,07,11,12,17,31.30
2007,07,11,12,18,31.30
2007,07,11,12,19,31.30
2007,07,11,12,20,31.40
2007,07,11,12,21,31.40
2007,07,11,12,22,31.20
2007,07,11,12,23,31.10
2007,07,11,12,24,31.00
2007,07,11,12,25,30.90
2007,07,11,12,26,30.90
2007,07,11,12,27,31.00
2007,07,11,12,28,31.00
2007,07,11,12,29,31.00
2007,07,11,12,30,31.10
2007,07,11,12,31,31.10
2007,07,11,12,32,31.10
2007,07,11,12,33,31.10
2007,07,11,12,34,31.10
2007,07,11,12,35,31.00
2007,07,11,12,36,31.00
2007,07,11,12,37,31.00
2007,07,11,12,38,31.00
2007,07,11,12,39,30.90
2007,07,11,12,40,30.90
2007,07,11,12,41,30.90
2007,07,11,12,42,30.90
2007,07,11,12,43,30.90
2007,07,11,12,44,30.90
2007,07,11,12,45,30.90
2007,07,11,12,46,30.90
2007,07,11,12,47,31.00
2007,07,11,12,48,31.10
2007,07,11,12,49,31.20
2007,07,11,12,50,31.30
2007,07,11,12,51,31.30
2007,07,11,12,52,31.30
2007,07,11,12,53,31.30
2007,07,11,12,54,31.30
2007,07,11,12,55,31.20
2007,07,11,12,56,31.20
2007,07,11,12,57,31.20
2007,07,11,12,58,31.20
2007,07,11,12,59,31.20
2007,07,11,13,00,31.10
2007,07,11,13,01,31.10
2007,07,11,13,02,31.10
2007,07,11,13,03,31.10
2007,07,11,13,04,31.10
2007,07,11,13,05,31.00
2007,07,11,13,06,30.90
2007,07,11,13,07,30.70
2007,07,11,13,08,30.60
2007,07,11,13,09,30.50
2007,07,11,13,10,30.30
2007,07,11,13,11,30.30
2007,07,11,13,12,30.30
2007,07,11,13,13,30.30
2007,07,11,13,14,30.40
2007,07,11,13,15,30.40
2007,07,11,13,16,30.50
2007,07,11,13,17,30.60
2007,07,11,13,18,30.60
2007,07,11,13,19,30.60
2007,07,11,13,20,30.60
2007,07,11,13,21,30.70
2007,07,11,13,22,30.70
2007,07,11,13,23,30.70
2007,07,11,13,24,30.60
2007,07,11,13,25,30.60
2007,07,11,13,26,30.60
2007,07,11,13,27,30.50
2007,07,11,13,28,30.50
2007,07,11,13,29,30.40
2007,07,11,13,30,30.40
2007,07,11,13,31,30.50
2007,07,11,13,32,30.60
2007,07,11,13,33,30.70
2007,07,11,13,34,30.80
2007,07,11,13,35,30.90
2007,07,11,13,36,31.00
2007,07,11,13,37,31.20
2007,07,11,13,38,31.30
2007,07,11,13,39,31.30
2007,07,11,13,40,31.30
2007,07,11,13,41,31.40
2007,07,11,13,42,31.40
2007,07,11,13,43,31.40
2007,07,11,13,44,31.40
2007,07,11,13,45,31.30
2007,07,11,13,46,31.20
2007,07,11,13,47,31.20
2007,07,11,13,48,31.20
2007,07,11,13,49,31.20
2007,07,11,13,50,31.20
2007,07,11,13,51,31.20
2007,07,11,13,52,31.30
2007,07,11,13,53,31.30
2007,07,11,13,54,31.30
2007,07,11,13,55,31.30
2007,07,11,13,56,31.40
2007,07,11,13,57,31.40
2007,07,11,13,58,31.50
2007,07,11,13,59,31.50
2007,07,11,14,00,31.50
2007,07,11,14,01,31.60
2007,07,11,14,02,31.70
2007,07,11,14,03,31.70
2007,07,11,14,04,31.70
2007,07,11,14,05,31.60
2007,07,11,14,06,31.50
2007,07,11,14,07,31.50
2007,07,11,14,08,31.40
2007,07,11,14,09,31.50
2007,07,11,14,10,31.50
2007,07,11,14,11,31.40
2007,07,11,14,12,31.50
2007,07,11,14,13,31.60
2007,07,11,14,14,31.70
2007,07,11,14,15,31.80
2007,07,11,14,16,31.90
2007,07,11,14,17,32.00
2007,07,11,14,18,32.00
2007,07,11,14,19,32.00
2007,07,11,14,20,31.90
2007,07,11,14,21,31.90
2007,07,11,14,22,31.90
2007,07,11,14,23,31.90
2007,07,11,14,24,32.00
2007,07,11,14,25,32.10
2007,07,11,14,26,32.10
2007,07,11,14,27,32.20
2007,07,11,14,28,32.30
2007,07,11,14,29,32.30
2007,07,11,14,30,32.50
2007,07,11,14,31,32.60
2007,07,11,14,32,32.70
2007,07,11,14,33,32.80
2007,07,11,14,34,32.80
2007,07,11,14,35,32.90
2007,07,11,14,36,33.00
2007,07,11,14,37,32.90
2007,07,11,14,38,33.00
2007,07,11,14,39,33.10
2007,07,11,14,40,33.20
2007,07,11,14,41,33.40
2007,07,11,14,42,33.60
2007,07,11,14,43,33.70
2007,07,11,14,44,33.90
2007,07,11,14,45,34.10
2007,07,11,14,46,34.20
2007,07,11,14,47,34.10
2007,07,11,14,48,34.00
2007,07,11,14,49,34.00
2007,07,11,14,50,33.90
2007,07,11,14,51,33.90
2007,07,11,14,52,33.80
2007,07,11,14,53,33.70
2007,07,11,14,54,33.60
2007,07,11,14,55,33.60
2007,07,11,14,56,33.50
2007,07,11,14,57,33.50
2007,07,11,14,58,33.50
2007,07,11,14,59,33.70
2007,07,11,15,00,33.70
2007,07,11,15,01,33.70
2007,07,11,15,02,33.80
2007,07,11,15,03,34.00
2007,07,11,15,04,34.20
2007,07,11,15,05,34.30
2007,07,11,15,06,34.30
2007,07,11,15,07,34.30
2007,07,11,15,08,34.40
2007,07,11,15,09,34.40
2007,07,11,15,10,34.40
2007,07,11,15,11,34.50
2007,07,11,15,12,34.50
2007,07,11,15,13,34.60
2007,07,11,15,14,34.60
2007,07,11,15,15,34.50
2007,07,11,15,16,34.50
2007,07,11,15,17,34.40
2007,07,11,15,18,34.40
2007,07,11,15,19,34.40
2007,07,11,15,20,34.40
2007,07,11,15,21,34.50
2007,07,11,15,22,34.50
2007,07,11,15,23,34.70
2007,07,11,15,24,34.80
2007,07,11,15,25,35.00
2007,07,11,15,26,35.20
2007,07,11,15,27,35.40
2007,07,11,15,28,35.60
2007,07,11,15,29,35.70
2007,07,11,15,30,35.70
2007,07,11,15,31,35.70
2007,07,11,15,32,35.70
2007,07,11,15,33,35.50
2007,07,11,15,34,35.40
2007,07,11,15,35,35.30
2007,07,11,15,36,35.10
2007,07,11,15,37,34.80
2007,07,11,15,38,34.50
2007,07,11,15,39,34.20
2007,07,11,15,40,34.00
2007,07,11,15,41,33.80
2007,07,11,15,42,33.60
2007,07,11,15,43,33.50
2007,07,11,15,44,33.40
2007,07,11,15,45,33.40
2007,07,11,15,46,33.30
2007,07,11,15,47,33.20
2007,07,11,15,48,33.10
2007,07,11,15,49,32.90
2007,07,11,15,50,32.90
2007,07,11,15,51,32.90
2007,07,11,15,52,32.90
2007,07,11,15,53,32.90
2007,07,11,15,54,32.90
2007,07,11,15,55,32.90
2007,07,11,15,56,32.90
2007,07,11,15,57,32.90
2007,07,11,15,58,32.90
2007,07,11,15,59,32.90
2007,07,11,16,00,32.90
2007,07,11,16,01,32.90
2007,07,11,16,02,32.90
2007,07,11,16,03,33.00
2007,07,11,16,04,33.00
2007,07,11,16,05,33.10
2007,07,11,16,06,33.10
2007,07,11,16,07,33.20
2007,07,11,16,08,33.30
2007,07,11,16,09,33.40
2007,07,11,16,10,33.50
2007,07,11,16,11,33.70
2007,07,11,16,12,33.80
2007,07,11,16,13,33.90
2007,07,11,16,14,34.00
2007,07,11,16,15,34.10
2007,07,11,16,16,34.10
2007,07,11,16,17,33.90
2007,07,11,16,18,33.80
2007,07,11,16,19,33.60
2007,07,11,16,20,33.50
2007,07,11,16,21,33.40
2007,07,11,16,22,33.30
2007,07,11,16,23,33.30
2007,07,11,16,24,33.30
2007,07,11,16,25,33.30
2007,07,11,16,26,33.30
2007,07,11,16,27,33.30
2007,07,11,16,28,33.40
2007,07,11,16,29,33.40
2007,07,11,16,30,33.30
2007,07,11,16,31,33.30
2007,07,11,16,32,33.20
2007,07,11,16,33,33.10
2007,07,11,16,34,33.00
2007,07,11,16,35,33.00
2007,07,11,16,36,32.90
2007,07,11,16,37,32.80
2007,07,11,16,38,32.80
2007,07,11,16,39,32.80
2007,07,11,16,40,32.80
2007,07,11,16,41,32.80
2007,07,11,16,42,32.60
2007,07,11,16,43,32.50
2007,07,11,16,44,32.40
2007,07,11,16,45,32.30
2007,07,11,16,46,32.30
2007,07,11,16,47,32.30
2007,07,11,16,48,32.30
2007,07,11,16,49,32.30
2007,07,11,16,50,32.30
2007,07,11,16,51,32.30
2007,07,11,16,52,32.40
2007,07,11,16,53,32.40
2007,07,11,16,54,32.40
2007,07,11,16,55,32.50
2007,07,11,16,56,32.60
2007,07,11,16,57,32.60
2007,07,11,16,58,32.60
2007,07,11,16,59,32.70
2007,07,11,17,00,32.80
2007,07,11,17,01,32.90
2007,07,11,17,02,33.00
2007,07,11,17,03,33.10
2007,07,11,17,04,33.20
2007,07,11,17,05,33.20
2007,07,11,17,06,33.00
2007,07,11,17,07,32.80
2007,07,11,17,08,32.60
2007,07,11,17,09,32.60
2007,07,11,17,10,32.60
2007,07,11,17,11,32.70
2007,07,11,17,12,32.70
2007,07,11,17,13,32.70
2007,07,11,17,14,32.60
2007,07,11,17,15,32.50
2007,07,11,17,16,32.50
2007,07,11,17,17,32.40
2007,07,11,17,18,32.40
2007,07,11,17,19,32.40